Time,TemperatureF,DewpointF,PressureIn,WindDirection,WindDirectionDegrees,WindSpeedMPH,WindSpeedGustMPH,Humidity,HourlyPrecipIn,Conditions,Clouds,dailyrainin,SoftwareType,DateUTC
2013-01-13 00:10:00,77.7,71.0,29.89,East,82,2.0,9.0,81,0.00,,,0.00,weatherlink.com 1.10,2013-01-13 04:10:00,
2013-01-13 00:25:00,77.9,72.0,29.88,East,84,6.0,9.0,82,0.00,,,0.00,weatherlink.com 1.10,2013-01-13 04:25:00,
2013-01-13 00:40:00,77.7,71.0,29.88,ENE,78,4.0,9.0,80,0.00,,,0.00,weatherlink.com 1.10,2013-01-13 04:40:00,
2013-01-13 00:55:00,77.6,71.0,29.88,NE,46,3.0,8.0,81,0.00,,,0.00,weatherlink.com 1.10,2013-01-13 04:55:00,
2013-01-13 01:10:00,77.5,72.0,29.87,ENE,66,2.0,8.0,82,0.00,,,0.00,weatherlink.com 1.10,2013-01-13 05:10:00,
2013-01-13 01:25:00,77.8,73.0,29.86,NNE,30,5.0,11.0,84,0.00,,,0.00,weatherlink.com 1.10,2013-01-13 05:25:00,
2013-01-13 01:40:00,77.5,72.0,29.86,East,90,2.0,9.0,82,0.00,,,0.00,weatherlink.com 1.10,2013-01-13 05:40:00,
2013-01-13 01:55:00,77.5,71.0,29.86,ENE,68,4.0,9.0,81,0.00,,,0.00,weatherlink.com 1.10,2013-01-13 05:55:00,
2013-01-13 02:10:00,77.4,71.0,29.85,ENE,73,4.0,10.0,81,0.00,,,0.00,weatherlink.com 1.10,2013-01-13 06:10:00,
2013-01-13 02:25:00,77.3,71.0,29.85,East,97,2.0,8.0,82,0.00,,,0.00,weatherlink.com 1.10,2013-01-13 06:25:00,
2013-01-13 02:40:00,76.9,71.0,29.85,ENE,70,2.0,7.0,82,0.00,,,0.00,weatherlink.com 1.10,2013-01-13 06:40:00,
2013-01-13 02:55:00,76.5,71.0,29.85,East,84,3.0,5.0,82,0.00,,,0.00,weatherlink.com 1.10,2013-01-13 06:55:00,
2013-01-13 03:10:00,76.2,71.0,29.85,ENE,71,2.0,8.0,84,0.00,,,0.00,weatherlink.com 1.10,2013-01-13 07:10:00,
2013-01-13 03:25:00,76.3,71.0,29.85,ESE,108,3.0,7.0,84,0.00,,,0.00,weatherlink.com 1.10,2013-01-13 07:25:00,
2013-01-13 03:40:00,76.7,71.0,29.85,East,97,3.0,8.0,83,0.00,,,0.00,weatherlink.com 1.10,2013-01-13 07:40:00,
2013-01-13 03:55:00,77.3,72.0,29.85,East,101,5.0,11.0,83,0.00,,,0.00,weatherlink.com 1.10,2013-01-13 07:55:00,
2013-01-13 04:10:00,77.2,72.0,29.85,ENE,69,5.0,8.0,83,0.00,,,0.00,weatherlink.com 1.10,2013-01-13 08:10:00,
2013-01-13 04:25:00,77.0,71.0,29.85,East,92,6.0,7.0,82,0.00,,,0.00,weatherlink.com 1.10,2013-01-13 08:25:00,
2013-01-13 04:40:00,76.7,71.0,29.85,ENE,58,1.0,8.0,83,0.00,,,0.00,weatherlink.com 1.10,2013-01-13 08:40:00,
2013-01-13 04:55:00,76.5,71.0,29.86,East,82,2.0,7.0,83,0.00,,,0.00,weatherlink.com 1.10,2013-01-13 08:55:00,
2013-01-13 05:10:00,76.6,71.0,29.86,East,86,3.0,7.0,82,0.00,,,0.00,weatherlink.com 1.10,2013-01-13 09:10:00,
2013-01-13 05:25:00,76.4,71.0,29.87,East,90,5.0,8.0,82,0.00,,,0.00,weatherlink.com 1.10,2013-01-13 09:25:00,
2013-01-13 05:40:00,76.7,71.0,29.87,East,101,1.0,7.0,82,0.00,,,0.00,weatherlink.com 1.10,2013-01-13 09:40:00,
2013-01-13 05:55:00,76.5,71.0,29.87,East,96,2.0,8.0,82,0.00,,,0.00,weatherlink.com 1.10,2013-01-13 09:55:00,
2013-01-13 06:10:00,76.4,71.0,29.87,ESE,111,3.0,6.0,82,0.00,,,0.00,weatherlink.com 1.10,2013-01-13 10:10:00,
2013-01-13 06:25:00,76.4,71.0,29.88,East,84,1.0,4.0,83,0.00,,,0.00,weatherlink.com 1.10,2013-01-13 10:25:00,
2013-01-13 06:40:00,76.2,71.0,29.89,East,94,1.0,8.0,84,0.00,,,0.00,weatherlink.com 1.10,2013-01-13 10:40:00,
2013-01-13 06:55:00,76.4,71.0,29.89,ENE,73,5.0,5.0,83,0.00,,,0.00,weatherlink.com 1.10,2013-01-13 10:55:00,
2013-01-13 07:10:00,76.3,71.0,29.90,East,90,2.0,5.0,84,0.00,,,0.00,weatherlink.com 1.10,2013-01-13 11:10:00,
2013-01-13 07:25:00,76.2,71.0,29.91,ENE,76,2.0,6.0,84,0.00,,,0.00,weatherlink.com 1.10,2013-01-13 11:25:00,
2013-01-13 07:40:00,77.6,72.0,29.91,ESE,113,4.0,9.0,83,0.00,,,0.00,weatherlink.com 1.10,2013-01-13 11:40:00,
2013-01-13 07:55:00,78.0,72.0,29.92,ESE,119,3.0,8.0,81,0.00,,,0.00,weatherlink.com 1.10,2013-01-13 11:55:00,
2013-01-13 08:10:00,77.7,72.0,29.92,ESE,109,3.0,7.0,83,0.00,,,0.00,weatherlink.com 1.10,2013-01-13 12:10:00,
2013-01-13 08:26:00,78.8,73.0,29.93,ESE,102,3.0,8.0,82,0.00,,,0.00,weatherlink.com 1.10,2013-01-13 12:26:00,
2013-01-13 08:41:00,81.0,73.0,29.93,East,101,6.0,11.0,76,0.00,,,0.00,weatherlink.com 1.10,2013-01-13 12:41:00,
2013-01-13 08:56:00,81.7,72.0,29.93,ESE,123,9.0,13.0,73,0.00,,,0.00,weatherlink.com 1.10,2013-01-13 12:56:00,
2013-01-13 09:11:00,81.6,73.0,29.94,East,90,8.0,10.0,75,0.00,,,0.00,weatherlink.com 1.10,2013-01-13 13:11:00,
2013-01-13 09:26:00,82.2,74.0,29.94,North,360,5.0,14.0,75,0.00,,,0.00,weatherlink.com 1.10,2013-01-13 13:26:00,
2013-01-13 09:41:00,82.3,74.0,29.93,East,86,9.0,13.0,75,0.00,,,0.00,weatherlink.com 1.10,2013-01-13 13:41:00,
2013-01-13 09:56:00,82.5,74.0,29.93,East,88,8.0,14.0,75,0.00,,,0.00,weatherlink.com 1.10,2013-01-13 13:56:00,
2013-01-13 10:11:00,81.9,74.0,29.93,SE,128,10.0,16.0,77,0.00,,,0.00,weatherlink.com 1.10,2013-01-13 14:11:00,
2013-01-13 10:26:00,82.7,74.0,29.93,ESE,113,10.0,14.0,75,0.00,,,0.00,weatherlink.com 1.10,2013-01-13 14:26:00,
2013-01-13 10:41:00,82.4,73.0,29.93,NE,55,5.0,16.0,74,0.00,,,0.00,weatherlink.com 1.10,2013-01-13 14:41:00,
2013-01-13 10:56:00,83.2,74.0,29.93,East,96,8.0,13.0,74,0.00,,,0.00,weatherlink.com 1.10,2013-01-13 14:56:00,
2013-01-13 11:11:00,83.1,74.0,29.92,East,86,7.0,15.0,73,0.00,,,0.00,weatherlink.com 1.10,2013-01-13 15:11:00,
2013-01-13 11:26:00,83.5,73.0,29.91,SE,128,12.0,15.0,71,0.00,,,0.00,weatherlink.com 1.10,2013-01-13 15:26:00,
2013-01-13 11:41:00,83.5,74.0,29.90,ESE,109,2.0,13.0,73,0.00,,,0.00,weatherlink.com 1.10,2013-01-13 15:41:00,
2013-01-13 11:56:00,83.5,74.0,29.90,East,98,6.0,13.0,73,0.00,,,0.00,weatherlink.com 1.10,2013-01-13 15:56:00,
2013-01-13 12:11:00,83.6,73.0,29.90,ESE,123,9.0,13.0,71,0.00,,,0.00,weatherlink.com 1.10,2013-01-13 16:11:00,
2013-01-13 12:26:00,83.7,73.0,29.89,ESE,117,4.0,16.0,71,0.00,,,0.00,weatherlink.com 1.10,2013-01-13 16:26:00,
2013-01-13 12:41:00,83.4,74.0,29.88,East,96,8.0,15.0,74,0.00,,,0.00,weatherlink.com 1.10,2013-01-13 16:41:00,
2013-01-13 12:56:00,83.5,73.0,29.88,ENE,76,2.0,13.0,71,0.00,,,0.00,weatherlink.com 1.10,2013-01-13 16:56:00,
2013-01-13 13:11:00,83.2,73.0,29.87,ENE,70,5.0,14.0,72,0.00,,,0.00,weatherlink.com 1.10,2013-01-13 17:11:00,
2013-01-13 13:26:00,82.9,74.0,29.86,East,86,8.0,17.0,74,0.00,,,0.00,weatherlink.com 1.10,2013-01-13 17:26:00,
2013-01-13 13:41:00,82.8,73.0,29.86,ENE,67,3.0,15.0,73,0.00,,,0.00,weatherlink.com 1.10,2013-01-13 17:41:00,
2013-01-13 13:56:00,83.7,73.0,29.85,South,169,9.0,17.0,71,0.00,,,0.00,weatherlink.com 1.10,2013-01-13 17:56:00,
2013-01-13 14:11:00,83.3,73.0,29.85,East,86,8.0,15.0,70,0.00,,,0.00,weatherlink.com 1.10,2013-01-13 18:11:00,
2013-01-13 14:26:00,84.1,73.0,29.84,ESE,121,5.0,17.0,69,0.00,,,0.00,weatherlink.com 1.10,2013-01-13 18:26:00,
2013-01-13 14:41:00,83.6,74.0,29.83,ENE,76,7.0,16.0,72,0.00,,,0.00,weatherlink.com 1.10,2013-01-13 18:41:00,
2013-01-13 14:56:00,82.9,73.0,29.83,ENE,73,9.0,13.0,71,0.00,,,0.00,weatherlink.com 1.10,2013-01-13 18:56:00,
2013-01-13 15:11:00,82.9,74.0,29.83,East,89,9.0,15.0,74,0.00,,,0.00,weatherlink.com 1.10,2013-01-13 19:11:00,
2013-01-13 15:26:00,82.0,74.0,29.83,ESE,123,4.0,14.0,76,0.00,,,0.00,weatherlink.com 1.10,2013-01-13 19:26:00,
2013-01-13 15:41:00,81.4,73.0,29.84,NNE,24,5.0,15.0,75,0.00,,,0.00,weatherlink.com 1.10,2013-01-13 19:41:00,
2013-01-13 15:56:00,81.5,73.0,29.84,ESE,106,4.0,14.0,75,0.00,,,0.00,weatherlink.com 1.10,2013-01-13 19:56:00,
2013-01-13 16:11:00,81.8,73.0,29.84,NNE,30,4.0,12.0,75,0.00,,,0.00,weatherlink.com 1.10,2013-01-13 20:11:00,
2013-01-13 16:26:00,81.5,73.0,29.84,ESE,104,3.0,16.0,75,0.00,,,0.00,weatherlink.com 1.10,2013-01-13 20:26:00,
2013-01-13 16:41:00,81.2,73.0,29.85,ENE,68,7.0,10.0,76,0.00,,,0.00,weatherlink.com 1.10,2013-01-13 20:41:00,
2013-01-13 16:56:00,81.2,73.0,29.86,ESE,122,7.0,11.0,76,0.00,,,0.00,weatherlink.com 1.10,2013-01-13 20:56:00,
2013-01-13 17:11:00,80.5,72.0,29.86,East,79,7.0,13.0,75,0.00,,,0.00,weatherlink.com 1.10,2013-01-13 21:11:00,
2013-01-13 17:26:00,80.3,73.0,29.87,East,87,6.0,12.0,77,0.00,,,0.00,weatherlink.com 1.10,2013-01-13 21:26:00,
2013-01-13 17:41:00,80.2,72.0,29.87,NE,38,5.0,13.0,77,0.00,,,0.00,weatherlink.com 1.10,2013-01-13 21:41:00,
2013-01-13 17:56:00,80.2,72.0,29.87,ENE,71,3.0,12.0,77,0.00,,,0.00,weatherlink.com 1.10,2013-01-13 21:56:00,
2013-01-13 18:11:00,79.9,72.0,29.88,NE,47,6.0,13.0,76,0.00,,,0.00,weatherlink.com 1.10,2013-01-13 22:11:00,
2013-01-13 18:26:00,79.6,72.0,29.88,NE,46,4.0,10.0,78,0.00,,,0.00,weatherlink.com 1.10,2013-01-13 22:26:00,
2013-01-13 18:41:00,79.3,72.0,29.88,ENE,78,5.0,8.0,78,0.00,,,0.00,weatherlink.com 1.10,2013-01-13 22:41:00,
2013-01-13 18:56:00,79.3,72.0,29.88,East,88,3.0,11.0,78,0.00,,,0.00,weatherlink.com 1.10,2013-01-13 22:56:00,
2013-01-13 19:11:00,79.2,72.0,29.89,East,84,5.0,12.0,78,0.00,,,0.00,weatherlink.com 1.10,2013-01-13 23:11:00,
2013-01-13 19:26:00,78.9,72.0,29.89,East,84,1.0,8.0,79,0.00,,,0.00,weatherlink.com 1.10,2013-01-13 23:26:00,
2013-01-13 19:41:00,78.5,72.0,29.89,ENE,78,7.0,8.0,80,0.00,,,0.00,weatherlink.com 1.10,2013-01-13 23:41:00,
2013-01-13 19:56:00,78.6,72.0,29.89,ENE,72,8.0,9.0,80,0.00,,,0.00,weatherlink.com 1.10,2013-01-13 23:56:00,
2013-01-13 20:11:00,78.4,72.0,29.89,ESE,117,4.0,8.0,81,0.00,,,0.00,weatherlink.com 1.10,2013-01-14 00:11:00,
2013-01-13 20:26:00,78.4,72.0,29.89,ENE,69,4.0,9.0,81,0.00,,,0.00,weatherlink.com 1.10,2013-01-14 00:26:00,
2013-01-13 20:41:00,78.4,73.0,29.89,East,99,7.0,8.0,82,0.00,,,0.00,weatherlink.com 1.10,2013-01-14 00:41:00,
2013-01-13 20:56:00,78.5,73.0,29.89,ENE,60,3.0,9.0,82,0.00,,,0.00,weatherlink.com 1.10,2013-01-14 00:56:00,
2013-01-13 21:11:00,78.6,73.0,29.89,ESE,110,7.0,10.0,83,0.00,,,0.00,weatherlink.com 1.10,2013-01-14 01:11:00,
2013-01-13 21:26:00,78.7,72.0,29.89,ESE,109,4.0,11.0,79,0.00,,,0.00,weatherlink.com 1.10,2013-01-14 01:26:00,
2013-01-13 21:41:00,78.5,72.0,29.89,ENE,60,7.0,10.0,79,0.00,,,0.00,weatherlink.com 1.10,2013-01-14 01:41:00,
2013-01-13 21:56:00,78.7,72.0,29.89,East,80,2.0,15.0,80,0.00,,,0.00,weatherlink.com 1.10,2013-01-14 01:56:00,
2013-01-13 22:11:00,78.7,72.0,29.89,ENE,63,3.0,13.0,79,0.00,,,0.00,weatherlink.com 1.10,2013-01-14 02:11:00,
2013-01-13 22:26:00,78.7,72.0,29.89,ENE,69,4.0,13.0,79,0.00,,,0.00,weatherlink.com 1.10,2013-01-14 02:26:00,
2013-01-13 22:41:00,78.6,72.0,29.89,East,84,2.0,11.0,80,0.00,,,0.00,weatherlink.com 1.10,2013-01-14 02:41:00,
2013-01-13 22:56:00,78.5,72.0,29.89,East,92,5.0,10.0,81,0.00,,,0.00,weatherlink.com 1.10,2013-01-14 02:56:00,
2013-01-13 23:11:00,78.5,73.0,29.89,NE,53,4.0,8.0,82,0.00,,,0.00,weatherlink.com 1.10,2013-01-14 03:11:00,
2013-01-13 23:26:00,78.5,73.0,29.89,East,83,7.0,12.0,82,0.00,,,0.00,weatherlink.com 1.10,2013-01-14 03:26:00,
2013-01-13 23:41:00,78.7,72.0,29.90,ESE,119,9.0,11.0,81,0.00,,,0.00,weatherlink.com 1.10,2013-01-14 03:41:00,
2013-01-13 23:56:00,78.6,72.0,29.90,East,99,7.0,9.0,81,0.00,,,0.00,weatherlink.com 1.10,2013-01-14 03:56:00,